Location: Teramo
(42.6500°N, 13.7000°E)
Time: 22:38:02
(UTC+01:00)

ISS - Visible Passes

Search period start: 23 January 2021 00:00
Search period end: 02 February 2021 00:00
Orbit: 418 x 421 km, 51.6° (Epoch: 24 January)

Date Brightness Start Highest point End Pass type
(mag) Time Alt. Az. Time Alt. Az. Time Alt. Az.
23 Jan -3.1 17:55:37 10° WSW 17:58:55 50° NNW 18:01:49 13° NE visible
23 Jan -0.9 19:33:47 10° WNW 19:34:48 15° NW 19:34:48 15° NW visible
24 Jan -2.0 18:46:02 10° WNW 18:48:45 22° NNW 18:49:25 21° N visible
25 Jan -2.2 17:58:17 10° W 18:01:13 27° NNW 18:04:00 11° NE visible
25 Jan -0.8 19:36:28 10° NW 19:36:58 12° NW 19:36:58 12° NW visible
26 Jan -1.7 18:48:50 10° NW 18:51:14 18° N 18:51:32 18° N visible
27 Jan -1.8 18:01:06 10° WNW 18:03:37 19° N 18:06:05 10° NE visible
27 Jan -0.7 19:38:41 10° NW 19:39:04 12° NW 19:39:04 12° NW visible
28 Jan -1.8 18:51:14 10° NW 18:53:37 18° N 18:53:37 18° N visible
29 Jan -1.7 18:03:41 10° NW 18:06:04 18° N 18:08:11 11° NE visible
29 Jan -0.9 19:40:35 10° NW 19:41:10 14° NW 19:41:10 14° NW visible
30 Jan -2.2 18:53:13 10° NW 18:55:46 24° N 18:55:46 24° N visible
31 Jan -2.0 18:05:49 10° NW 18:08:27 20° NNE 18:10:25 13° NE visible
31 Jan -1.1 19:42:23 10° NW 19:43:24 18° NW 19:43:24 18° NW visible
01 Feb -3.2 18:55:00 10° NW 18:58:07 42° NNE 18:58:07 42° NNE visible
